When you browse on this site, cookies collect data to enhance your experience and personalize the content and advertising you see.
Visit our Privacy Policy to learn more. By continuing to use the site, you agree to this use of cookies and data.
  • In Belgien
  • Länderverzeichnis
  • Für 7 Tage
  • Wassertemperatur
  • Satellitenkarten
  • Wetterkarte
  • Widgets
  • user-avatar
    Anmelden

    Stündliche Wetter Brasschaat

    Heute, 23 Februar, Samstag

    Zeit Temperatur Niederschläge Wind Luftdruck Luftfeuchtigkeit
    00:00 +8°C° 0 mm 3 m/S 777 mmHg 90%
    01:00 +7°C° 0 mm 3 m/S 777 mmHg 90%
    02:00 +7°C° 0 mm 3 m/S 776 mmHg 90%
    03:00 +6°C° 0 mm 2 m/S 776 mmHg 91%
    04:00 +6°C° 0 mm 2 m/S 776 mmHg 91%
    05:00 +6°C° 0 mm 2 m/S 777 mmHg 91%
    06:00 +5°C° 0 mm 2 m/S 777 mmHg 91%
    07:00 +6°C° 0 mm 2 m/S 777 mmHg 86%
    08:00 +7°C° 0 mm 3 m/S 777 mmHg 82%
    09:00 +8°C° 0 mm 3 m/S 777 mmHg 77%
    10:00 +9°C° 0 mm 3 m/S 777 mmHg 70%
    11:00 +11°C° 0 mm 3 m/S 776 mmHg 63%
    12:00 +12°C° 0 mm 3 m/S 776 mmHg 56%
    13:00 +13°C° 0 mm 3 m/S 776 mmHg 54%
    14:00 +13°C° 0 mm 3 m/S 776 mmHg 52%
    15:00 +14°C° 0 mm 2 m/S 776 mmHg 49%
    16:00 +13°C° 0 mm 2 m/S 776 mmHg 53%
    17:00 +12°C° 0 mm 2 m/S 776 mmHg 56%
    18:00 +9°C° 0 mm 2 m/S 776 mmHg 59%
    19:00 +9°C° 0 mm 3 m/S 776 mmHg 58%
    20:00 +8°C° 0 mm 3 m/S 776 mmHg 58%
    21:00 +7°C° 0 mm 3 m/S 777 mmHg 57%
    22:00 +7°C° 0 mm 2 m/S 777 mmHg 56%
    23:00 +6°C° 0 mm 2 m/S 777 mmHg 54%

    Morgen, 24 Februar, Sonntag

    Zeit Temperatur Niederschläge Wind Luftdruck Luftfeuchtigkeit
    00:00 +6°C° 0 mm 2 m/S 777 mmHg 53%
    01:00 +5°C° 0 mm 2 m/S 777 mmHg 51%
    02:00 +5°C° 0 mm 2 m/S 777 mmHg 50%
    03:00 +6°C° 0 mm 1 m/S 776 mmHg 48%
    04:00 +5°C° 0 mm 1 m/S 777 mmHg 47%
    05:00 +5°C° 0 mm 1 m/S 777 mmHg 46%
    06:00 +5°C° 0 mm 1 m/S 777 mmHg 44%
    07:00 +6°C° 0 mm 1 m/S 777 mmHg 42%
    08:00 +7°C° 0 mm 1 m/S 777 mmHg 41%
    09:00 +8°C° 0 mm 1 m/S 777 mmHg 39%
    10:00 +10°C° 0 mm 1 m/S 777 mmHg 35%
    11:00 +12°C° 0 mm 2 m/S 777 mmHg 31%
    12:00 +13°C° 0 mm 2 m/S 778 mmHg 27%
    13:00 +14°C° 0 mm 2 m/S 777 mmHg 29%
    14:00 +14°C° 0 mm 2 m/S 777 mmHg 30%
    15:00 +15°C° 0 mm 2 m/S 777 mmHg 31%
    16:00 +13°C° 0 mm 2 m/S 777 mmHg 36%
    17:00 +12°C° 0 mm 2 m/S 777 mmHg 41%
    18:00 +10°C° 0 mm 2 m/S 777 mmHg 46%
    19:00 +9°C° 0 mm 2 m/S 777 mmHg 47%
    20:00 +9°C° 0 mm 2 m/S 778 mmHg 49%
    21:00 +8°C° 0 mm 2 m/S 778 mmHg 51%
    22:00 +8°C° 0 mm 2 m/S 778 mmHg 52%
    23:00 +8°C° 0 mm 2 m/S 778 mmHg 53%

    übermorgen, 25 Februar, Montag

    Zeit Temperatur Niederschläge Wind Luftdruck Luftfeuchtigkeit
    00:00 +8°C° 0 mm 2 m/S 778 mmHg 54%
    01:00 +7°C° 0 mm 2 m/S 778 mmHg 53%
    02:00 +7°C° 0 mm 2 m/S 778 mmHg 52%
    03:00 +8°C° 0 mm 1 m/S 778 mmHg 51%
    04:00 +8°C° 0 mm 1 m/S 778 mmHg 51%
    05:00 +7°C° 0 mm 1 m/S 778 mmHg 51%
    06:00 +7°C° 0 mm 1 m/S 778 mmHg 50%
    07:00 +8°C° 0 mm 1 m/S 778 mmHg 49%
    08:00 +9°C° 0 mm 1 m/S 778 mmHg 48%
    09:00 +9°C° 0 mm 2 m/S 778 mmHg 46%
    10:00 +12°C° 0 mm 2 m/S 778 mmHg 43%
    11:00 +14°C° 0 mm 2 m/S 778 mmHg 40%
    12:00 +15°C° 0 mm 2 m/S 778 mmHg 37%
    13:00 +16°C° 0 mm 2 m/S 777 mmHg 38%
    14:00 +18°C° 0 mm 1 m/S 777 mmHg 38%
    15:00 +18°C° 0 mm 1 m/S 777 mmHg 39%
    16:00 +16°C° 0 mm 1 m/S 777 mmHg 44%
    17:00 +14°C° 0 mm 1 m/S 777 mmHg 48%
    18:00 +12°C° 0 mm 2 m/S 777 mmHg 53%
    19:00 +12°C° 0 mm 2 m/S 777 mmHg 56%
    20:00 +10°C° 0 mm 2 m/S 777 mmHg 59%
    21:00 +10°C° 0 mm 2 m/S 777 mmHg 61%
    22:00 +9°C° 0 mm 2 m/S 777 mmHg 64%
    23:00 +9°C° 0 mm 2 m/S 777 mmHg 67%

    26 Februar, Dienstag

    Zeit Temperatur Niederschläge Wind Luftdruck Luftfeuchtigkeit
    00:00 +9°C° 0 mm 2 m/S 777 mmHg 70%
    01:00 +8°C° 0 mm 2 m/S 776 mmHg 70%
    02:00 +9°C° 0 mm 1 m/S 776 mmHg 70%
    03:00 +9°C° 0 mm 1 m/S 776 mmHg 70%
    04:00 +9°C° 0 mm 1 m/S 776 mmHg 69%
    05:00 +8°C° 0 mm 1 m/S 776 mmHg 68%
    06:00 +8°C° 0 mm 1 m/S 776 mmHg 68%
    07:00 +9°C° 0 mm 1 m/S 776 mmHg 64%
    08:00 +10°C° 0 mm 1 m/S 776 mmHg 60%
    09:00 +12°C° 0 mm 1 m/S 776 mmHg 56%
    10:00 +13°C° 0 mm 1 m/S 776 mmHg 51%
    11:00 +15°C° 0 mm 1 m/S 776 mmHg 46%
    12:00 +18°C° 0 mm 1 m/S 775 mmHg 42%
    13:00 +18°C° 0 mm 1 m/S 775 mmHg 42%
    14:00 +18°C° 0 mm 2 m/S 775 mmHg 42%
    15:00 +18°C° 0 mm 2 m/S 774 mmHg 41%
    16:00 +16°C° 0 mm 2 m/S 774 mmHg 47%
    17:00 +15°C° 0 mm 2 m/S 774 mmHg 52%
    18:00 +13°C° 0 mm 2 m/S 774 mmHg 57%
    19:00 +13°C° 0 mm 2 m/S 774 mmHg 59%
    20:00 +12°C° 0 mm 2 m/S 774 mmHg 61%
    21:00 +10°C° 0 mm 2 m/S 774 mmHg 63%
    22:00 +10°C° 0 mm 2 m/S 774 mmHg 66%
    23:00 +9°C° 0 mm 2 m/S 774 mmHg 68%

    27 Februar, Mittwoch

    Zeit Temperatur Niederschläge Wind Luftdruck Luftfeuchtigkeit
    00:00 +9°C° 0 mm 2 m/S 773 mmHg 70%
    01:00 +8°C° 0 mm 2 m/S 773 mmHg 70%
    02:00 +8°C° 0 mm 2 m/S 773 mmHg 70%
    03:00 +8°C° 0 mm 2 m/S 773 mmHg 70%
    04:00 +7°C° 0 mm 2 m/S 772 mmHg 70%
    05:00 +7°C° 0 mm 2 m/S 772 mmHg 71%
    06:00 +7°C° 0 mm 2 m/S 772 mmHg 71%
    07:00 +8°C° 0 mm 2 m/S 772 mmHg 67%
    08:00 +9°C° 0 mm 2 m/S 772 mmHg 63%
    09:00 +10°C° 0 mm 2 m/S 771 mmHg 60%
    10:00 +12°C° 0 mm 2 m/S 771 mmHg 55%
    11:00 +14°C° 0 mm 2 m/S 771 mmHg 51%
    12:00 +16°C° 0 mm 2 m/S 771 mmHg 47%
    13:00 +16°C° 0 mm 2 m/S 770 mmHg 47%
    14:00 +17°C° 0 mm 2 m/S 770 mmHg 47%
    15:00 +17°C° 0 mm 2 m/S 769 mmHg 47%
    16:00 +16°C° 0 mm 2 m/S 769 mmHg 53%
    17:00 +15°C° 0 mm 2 m/S 769 mmHg 59%
    18:00 +13°C° 0 mm 2 m/S 769 mmHg 65%
    19:00 +12°C° 0 mm 2 m/S 769 mmHg 68%
    20:00 +12°C° 0 mm 2 m/S 769 mmHg 71%
    21:00 +10°C° 0 mm 2 m/S 769 mmHg 73%
    22:00 +10°C° 0 mm 2 m/S 768 mmHg 76%
    23:00 +9°C° 0 mm 2 m/S 768 mmHg 78%

    28 Februar, Donnerstag

    Zeit Temperatur Niederschläge Wind Luftdruck Luftfeuchtigkeit
    00:00 +9°C° 0 mm 3 m/S 768 mmHg 81%
    01:00 +8°C° 0 mm 3 m/S 768 mmHg 83%
    02:00 +8°C° 0 mm 3 m/S 768 mmHg 85%
    03:00 +8°C° 0 mm 3 m/S 767 mmHg 87%
    04:00 +7°C° 0 mm 3 m/S 767 mmHg 88%
    05:00 +7°C° 0 mm 3 m/S 768 mmHg 89%
    06:00 +7°C° 0 mm 3 m/S 768 mmHg 90%
    07:00 +8°C° 0 mm 3 m/S 768 mmHg 87%
    08:00 +9°C° 0 mm 3 m/S 768 mmHg 84%
    09:00 +10°C° 0 mm 3 m/S 768 mmHg 82%
    10:00 +11°C° 0 mm 3 m/S 768 mmHg 77%
    11:00 +13°C° 0 mm 4 m/S 767 mmHg 71%
    12:00 +14°C° 0 mm 4 m/S 767 mmHg 66%
    13:00 +14°C° 0 mm 4 m/S 767 mmHg 65%
    14:00 +14°C° 0 mm 4 m/S 767 mmHg 63%
    15:00 +14°C° 0 mm 4 m/S 767 mmHg 62%
    16:00 +12°C° 0 mm 3 m/S 767 mmHg 68%
    17:00 +11°C° 0 mm 3 m/S 767 mmHg 75%
    18:00 +10°C° 0 mm 2 m/S 767 mmHg 81%
    19:00 +9°C° 0 mm 2 m/S 767 mmHg 84%
    20:00 +9°C° 0 mm 2 m/S 767 mmHg 87%
    21:00 +8°C° 0 mm 2 m/S 767 mmHg 90%
    22:00 +8°C° 0 mm 2 m/S 767 mmHg 91%
    23:00 +9°C° 0 mm 1 m/S 767 mmHg 92%
    Mehr zeigen